User: anonymous   Login
Location: Stamford Observatory
(41.1241°N, 73.5498°W)
Time: 14:02:27
(UTC-04:00)
Language:

IRS-P3 - Orbit

View from above orbital plane
View from above orbital plane
View from above satellite
View from above satellite

Ground track
Ground track

The orbit data is extracted from the following two-line orbital elements,

1 23827U 96017A   16207.85382113  .00000026  00000-0  31517-4 0  9991
2 23827  98.6921 143.4459 0002230 259.8384 100.2543 14.22461973 56011
Epoch (UTC): 25 July 2016 20:29:30
Eccentricity: 0.0002230
inclination: 98.6921°
perigee height: 815 km
apogee height: 818 km
right ascension of ascending node: 143.4459°
argument of perigee: 259.8384°
revolutions per day: 14.22461973
mean anomaly at epoch: 100.2543°
orbit number at epoch: 5601

The dashed part of the orbit path shows where the satellite is in the earth's shadow,  

DLR